Flag for Greece Weather past 2 weeks in Heraklion, Crete, Greece

Now
77 °F

Passing clouds.


Feels Like: 79 °F
Forecast: 75 / 85 °F
Wind: 16 mph from Northwest

Location: Heraklion Airport

Current Time: Aug 31, 2014 at 5:59:46 AM

Latest Report: Aug 31, 2014 at 4:50 AM


Visibility: N/A

Pressure: 29.86 "Hg

Humidity: 61%

Dew point: 63 °F

Location of HeraklionLocation

Historic Weather in Heraklion — Graph

°F

Heraklion temperature yesterday

Maximum temperature yesterday: 82 °F (at 1:50 PM)
Minimum temperature yesterday: 75 °F (at 10:50 PM)
Average temperature yesterday: 79 °F

Past Weeks' High & Low Weather Summary

 TemperatureHumidityPressure
High90 °F (Aug 16, 10:50 AM)89% (Aug 20, 10:50 PM)29.98 "Hg (Aug 20, 10:50 PM)
Low70 °F (Aug 21, 2:50 AM)12% (Aug 27, 2:50 AM)29.68 "Hg (Aug 17, 4:50 PM)
Average80 °F64%29.85 "Hg
* Reported Aug 16 4:50 AM — Aug 31 4:50 AM, Heraklion, Weather by CustomWeather, © 2014

Note: Actual official high and low records may vary slightly from our data, if they occured in-between our weather recording intervals... More about our weather records

Advertising

Heraklion weather history for previous 24 hours

 ConditionsComfort  
Time TempWeatherWind HumidityBarometerVisibility
4:50 AM
Aug 31
77 °FPassing clouds.16 mph61%29.86 "HgN/A
3:50 AM75 °FPassing clouds.16 mph61%29.89 "HgN/A
3:20 AM75 °FPassing clouds.13 mph61%29.89 "HgN/A
2:50 AM75 °FPassing clouds.15 mph61%29.89 "HgN/A
2:20 AM75 °FPassing clouds.16 mph61%29.89 "HgN/A
1:50 AM75 °FPassing clouds.15 mph61%29.89 "HgN/A
1:20 AM77 °FPassing clouds.13 mph61%29.92 "HgN/A
12:50 AM77 °FPassing clouds.15 mph61%29.92 "HgN/A
12:20 AM77 °FPassing clouds.15 mph61%29.92 "HgN/A
11:50 PM
Aug 30
77 °FPassing clouds.14 mph61%29.92 "HgN/A
11:20 PM75 °FPassing clouds.12 mph61%29.92 "HgN/A
10:50 PM75 °FClear.9 mph61%29.92 "Hg10 mi
10:20 PM77 °FClear.13 mph65%29.92 "Hg10 mi
9:50 PM77 °FClear.12 mph65%29.92 "Hg10 mi
8:50 PM77 °FClear.12 mph65%29.89 "Hg10 mi
8:20 PM77 °FPassing clouds.12 mph65%29.89 "HgN/A
7:50 PM77 °FPassing clouds.13 mph65%29.89 "HgN/A
7:20 PM79 °FPassing clouds.13 mph61%29.89 "HgN/A
6:50 PM79 °FPassing clouds.13 mph61%29.89 "HgN/A
6:20 PM79 °FPassing clouds.13 mph61%29.89 "HgN/A
5:50 PM81 °FPassing clouds.13 mph58%29.89 "HgN/A
5:20 PM81 °FPassing clouds.13 mph62%29.89 "HgN/A
4:50 PM81 °FPassing clouds.13 mph62%29.89 "HgN/A
3:50 PM82 °FPassing clouds.15 mph55%29.92 "HgN/A
3:20 PM82 °FPassing clouds.14 mph55%29.92 "HgN/A
2:50 PM82 °FPassing clouds.14 mph55%29.92 "HgN/A
2:20 PM82 °FPassing clouds.15 mph58%29.92 "HgN/A
1:50 PM82 °FPassing clouds.15 mph58%29.92 "HgN/A
1:20 PM81 °FPassing clouds.16 mph54%29.92 "HgN/A
12:50 PM81 °FPassing clouds.15 mph54%29.92 "HgN/A
12:20 PM81 °FPassing clouds.16 mph54%29.92 "HgN/A
11:50 AM81 °FScattered clouds.17 mph58%29.92 "HgN/A
11:20 AM81 °FScattered clouds.17 mph58%29.92 "HgN/A
10:50 AM81 °FPassing clouds.18 mph58%29.92 "HgN/A
10:20 AM81 °FPassing clouds.20 mph62%29.92 "HgN/A
9:50 AM81 °FPassing clouds.20 mph58%29.92 "HgN/A
9:20 AM81 °FPassing clouds.20 mph54%29.92 "HgN/A
8:50 AM79 °FPassing clouds.17 mph61%29.92 "HgN/A
8:20 AM79 °FScattered clouds.20 mph65%29.92 "HgN/A
7:50 AM79 °FPassing clouds.20 mph61%29.89 "HgN/A
7:20 AM77 °FPassing clouds.14 mph69%29.89 "HgN/A
6:50 AM77 °FPassing clouds.14 mph69%29.89 "HgN/A
6:20 AM77 °FPassing clouds.14 mph69%29.89 "HgN/A
5:50 AM77 °FPassing clouds.14 mph69%29.89 "HgN/A
5:20 AM79 °FPassing clouds.18 mph70%29.89 "HgN/A
Weather by CustomWeather, © 2014

See weather overviewHow to use our weather pages